Weather Roundup
Issued by NWS

Home | Current Version | Previous Version | Text Only | Print | Product List | Glossary On
Versions: 1 2 3 4 5 6 7 8 9 10 11 12 13 14 15 16 17 18 19 20 21 22 23 24 25 26 27 28 29 30 31 32 33 34 35 36 37 38 39 40 41 42 43 44 45 46 47 48 49 50
000
NZUS93 KARX 260610
HRRWXR

CURRENT HOURLY OBSERVATIONS ACROSS
MUCH OF THE UPPER MISSISSIPPI VALLEY
NATIONAL WEATHER SERVICE LA CROSSE WI
1200 AM CST WED NOV 26 2014


...SOUTHEAST MINNESOTA...


CITY           SKY/WX    TMP DP  RH WIND       PRES   REMARKS
ROCHESTER      CLOUDY    19  14  81 SE10      30.02F WCI   7
ROCHESTER/MAYO CLOUDY    20  13  73 SE10      30.04S WCI   9
WINONA         CLOUDY    21  16  79 CALM      30.11S
AUSTIN         CLOUDY    21  16  79 SE8       30.01S WCI  12
ALBERT LEA     CLOUDY    23  18  80 SE13      29.98F WCI  11
DODGE CENTER   MOCLDY    19  18  93 SE10      30.00F WCI   8
PRESTON        MOCLDY    15  12  85 SE6       30.05S WCI   7
OWATONNA       CLOUDY    23  16  74 SE12      29.99S WCI  12
FARIBAULT      CLOUDY    25  18  74 SE8       30.01R WCI  16
$$

...ELSEWHERE IN MINNESOTA...


CITY           SKY/WX    TMP DP  RH WIND       PRES   REMARKS
MINNEAPOLIS    CLOUDY    24  16  71 SE9       30.03S WCI  14
INTNL FALLS    LGT SNOW  15  11  83 N5        30.07R FOG     WCI   8
DULUTH         CLOUDY    19  11  70 W3        30.04R
RED WING       CLOUDY    25  14  63 SE7       30.06S WCI  17
REDWOOD FALLS  LGT SNOW  26  23  88 SE12      29.93S FOG     WCI  16
MANKATO        CLOUDY    25  14  63 SE15      29.97S WCI  12
WORTHINGTON    CLOUDY    27  25  93 SE12      29.86S WCI  16
FAIRMONT       CLOUDY    27  16  63 SE14      29.93S WCI  15
$$

...SOUTHWEST WISCONSIN...


CITY           SKY/WX    TMP DP  RH WIND       PRES   REMARKS
LA CROSSE      CLOUDY    19  14  81 SE5       30.12R WCI  12
PRAIRIE DU CHI PTCLDY    16  12  84 E5        30.12S WCI   9
BOSCOBEL       PTCLDY     8   4  83 CALM      30.14S
LONE ROCK      CLEAR     11   5  77 E3        30.15S
PLATTEVILLE    CLEAR     15  14  94 CALM      30.12F
FORT MC COY    CLOUDY    15  14  95 CALM      30.12F
CAMP DOUGLAS   PTCLDY    15  15 100 CALM      30.12S
VIROQUA        FAIR      15  13  90 SE5       30.08S WCI   7
WIS DELLS      PTCLDY    10   7  90 CALM      30.12S
$$

...ELSEWHERE IN WISCONSIN...


CITY           SKY/WX    TMP DP  RH WIND       PRES   REMARKS
MILWAUKEE      CLOUDY    20  15  81 S7        30.18S WCI  11
MADISON        CLEAR     14   9  80 CALM      30.15S
GREEN BAY      PTCLDY    12  11  95 CALM      30.18R FOG
EAU CLAIRE     CLOUDY    22  15  75 SE3       30.09R
BLACK RVR FLS  CLOUDY    22  17  80 SE3       30.11R
MEDFORD        CLOUDY    19  16  85 SE6       30.06S WCI  11
WAUSAU         CLOUDY    12  10  92 E6        30.10R WCI   3
WIS RAPIDS     CLOUDY    18  13  80 CALM      30.13S
MARSHFIELD     CLOUDY    21  15  78 SE3       30.09R
RICE LAKE      CLOUDY    22  17  80 SE5       30.08S WCI  16
$$

...NORTHEAST IOWA...


CITY           SKY/WX    TMP DP  RH WIND       PRES   REMARKS
DECORAH        CLOUDY    18  14  86 SE6       30.06S WCI   9
MASON CITY     CLOUDY    23  17  78 SE12      30.00F WCI  12
CHARLES CITY   CLOUDY    21  18  86 SE13      30.04S WCI   9
OELWEIN        MOCLDY    21  18  86 SE13      30.07S WCI   9
$$

...ELSEWHERE IN IOWA...


CITY           SKY/WX    TMP DP  RH WIND       PRES   REMARKS
DES MOINES     CLOUDY    33  15  47 SE12      29.97F WCI  24
IOWA CITY      CLEAR     19  16  88 SE3       30.13S
FORT DODGE     CLOUDY    30  16  55 SE9       29.94S WCI  22
$$

...NORTHERN ILLINOIS...


CITY           SKY/WX    TMP DP  RH WIND       PRES   REMARKS
CHICAGO-OHARE  MOCLDY    20  16  84 S7        30.18F WCI  11
CHICAGO-MIDWAY CLOUDY    24  18  77 SW7       30.19S WCI  16
MOLINE         CLEAR     14  11  87 E7        30.14F WCI   4
ROCKFORD       CLEAR     10   7  87 CALM      30.20R
PEORIA         FAIR      23  18  81 E3        30.16F
$$

NOTE: "FAIR" INDICATES FEW OR NO CLOUDS BELOW 12,000 FEET WITH NO
SIGNIFICANT WEATHER AND/OR OBSTRUCTIONS TO VISIBILITY. WIND
SPEEDS ARE IN MILES-PER-HOUR.



USA.gov is the U.S. government's official web portal to all federal, state and local government web resources and services.